CUSAT 2 & FALCON 9 R/B (39271 NORAD) Tracking and Keplerian Element Data

This shows tracking and keplerian element data for the satellite.

Feedback or suggestion? Click here.




ElementValue
Catalog39271
NameCUSAT 2 & FALCON 9 R/B
Epoch Orbit39818
Epoch Day130.89373942
Epoch Year2021
RAAN273.7362
Inclination80.964
Eccentricity0.0570893
Argument of Perigee262.632
Mean Anonmoly90.9687
Mean Motion14.520923
Decay Rate2.923E-05
L11 39271U 13055G 21130.89373942 .00002923 00000-0 69129-4 0 9995
L22 39271 80.9640 273.7362 0570893 262.6320 90.9687 14.52092300398188

Live tracking and technical data element details for CUSAT 2 & FALCON 9 R/B (NORAD 39271). CUSAT 2 & FALCON 9 R/B can be tracked NOW for your location showing map with azimuth and elevation plus other details from your city location.

Track the satellite on the map from your city or location and see movement details for azimuth, elevation, latitude, longitude, range, height, and movement on the map or in text.







IsCatalogInMostPopularTable: catalog: 39271, numindb: 739
Update: records affected: 1



GetName: 39271 CUSAT 2 & FALCON 9 R/B

Hit Count: updated at: Tue, 11 May 2021 20:42:47 GMT